This demonstration page uses our WeatherBlox Daily Observations layout. Learn more.

Hourly Observations for November 21, 2015

Temp ( °F °C ) Dew Point ( °F °C ) Humidity (%) Winds ( mph kmh ) Pressure ( in mb ) Visibility ( mi km ) Precip ( " mm )
12:15 am 00:15 Partly Cloudy 28 -2 23 -5 80 80 N 17 28 30.45 1031 10 16.09344 0 0
12:35 am 00:35 Mostly Cloudy 28 -2 23 -5 80 80 NNW 15 24 30.48 1032 10 16.09344 0 0
12:55 am 00:55 Cloudy 28 -2 23 -5 80 80 N 16 26 30.48 1032 10 16.09344 0 0
1:15 am 01:15 Cloudy 28 -2 21 -6 74 74 N 16 26 30.48 1032 10 16.09344 0 0
1:35 am 01:35 Cloudy 28 -2 21 -6 74 74 N 17 28 30.48 1032 10 16.09344 0 0
1:55 am 01:55 Cloudy 28 -2 21 -6 74 74 N 10 17 30.5 1033 10 16.09344 0 0
2:15 am 02:15 Partly Cloudy 27 -3 19 -7 74 74 N 10 17 30.5 1033 10 16.09344 0 0
2:35 am 02:35 Mostly Cloudy 27 -3 19 -7 74 74 NNW 9 15 30.5 1033 10 16.09344 0 0
2:55 am 02:55 Cloudy 27 -3 21 -6 80 80 NNW 8 13 30.56 1035 10 16.09344 0 0
3:15 am 03:15 Cloudy 27 -3 19 -7 74 74 NNW 10 17 30.56 1035 10 16.09344 0 0
3:35 am 03:35 Cloudy 27 -3 19 -7 74 74 NW 7 11 30.56 1035 10 16.09344 0 0
3:55 am 03:55 Cloudy 27 -3 21 -6 80 80 NW 6 9 30.56 1035 10 16.09344 0 0
4:15 am 04:15 Cloudy 27 -3 21 -6 80 80 NW 6 9 30.5 1033 10 16.09344 0 0
4:35 am 04:35 Cloudy 27 -3 21 -6 80 80 WNW 10 17 30.56 1035 10 16.09344 0 0
4:55 am 04:55 Cloudy 28 -2 21 -6 74 74 NW 12 19 30.53 1034 10 16.09344 0 0
5:15 am 05:15 Cloudy 27 -3 21 -6 80 80 NNW 13 20 30.56 1035 10 16.09344 0 0
5:35 am 05:35 Partly Cloudy 25 -4 19 -7 80 80 NNW 13 20 30.56 1035 10 16.09344 0 0
5:55 am 05:55 Clear 25 -4 18 -8 74 74 NNW 10 17 30.56 1035 10 16.09344 0 0
6:15 am 06:15 Clear 25 -4 18 -8 74 74 NNW 10 17 30.53 1034 10 16.09344 0 0
6:35 am 06:35 Clear 23 -5 18 -8 80 80 NNW 9 15 30.53 1034 10 16.09344 0 0
6:55 am 06:55 Partly Cloudy 23 -5 18 -8 80 80 NNW 8 13 30.56 1035 10 16.09344 0 0
7:15 am 07:15 Partly Cloudy 23 -5 16 -9 74 74 NNW 8 13 30.56 1035 10 16.09344 0 0
7:35 am 07:35 Sunny 23 -5 16 -9 74 74 NNW 8 13 30.56 1035 10 16.09344 0 0
7:55 am 07:55 Sunny 23 -5 16 -9 74 74 NNW 7 11 30.56 1035 10 16.09344 0 0
8:15 am 08:15 Sunny 23 -5 16 -9 74 74 NNW 8 13 30.56 1035 10 16.09344 0 0
8:35 am 08:35 Sunny 25 -4 16 -9 69 69 NW 9 15 30.56 1035 10 16.09344 0 0
8:55 am 08:55 Sunny 25 -4 16 -9 69 69 NNW 10 17 30.56 1035 10 16.09344 0 0
9:15 am 09:15 Sunny 27 -3 14 -10 59 59 NNW 9 15 30.56 1035 10 16.09344 0 0
9:35 am 09:35 Sunny 27 -3 14 -10 59 59 N 8 13 30.56 1035 10 16.09344 0 0
9:55 am 09:55 Sunny 27 -3 14 -10 59 59 NNW 7 11 30.59 1036 10 16.09344 0 0
10:15 am 10:15 Sunny 28 -2 14 -10 55 55 NW 9 15 30.56 1035 10 16.09344 0 0
10:35 am 10:35 Sunny 28 -2 14 -10 55 55 NNW 8 13 30.53 1034 10 16.09344 0 0
10:55 am 10:55 Sunny 30 -1 12 -11 47 47 NW 9 15 30.53 1034 10 16.09344 0 0
11:15 am 11:15 Sunny 30 -1 12 -11 47 47 NW 9 15 30.53 1034 10 16.09344 0 0
11:35 am 11:35 Sunny 30 -1 12 -11 47 47 NNW 7 11 30.5 1033 10 16.09344 0 0
11:55 am 11:55 Sunny 32 0 12 -11 44 44 NW 7 11 30.48 1032 10 16.09344 0 0
12:15 pm 12:15 Sunny 32 0 12 -11 44 44 W 7 11 30.45 1031 10 16.09344 0 0
12:35 pm 12:35 Sunny 32 0 14 -10 47 47 W 8 13 30.45 1031 10 16.09344 0 0
12:55 pm 12:55 Sunny 34 1 14 -10 44 44 WSW 7 11 30.42 1030 10 16.09344 0 0
1:15 pm 13:15 Sunny 34 1 12 -11 41 41 W 7 11 30.42 1030 10 16.09344 0 0
1:35 pm 13:35 Sunny 34 1 10 -12 38 38 W 7 11 30.39 1029 10 16.09344 0 0
1:55 pm 13:55 Sunny 36 2 10 -12 35 35 W 10 17 30.39 1029 10 16.09344 0 0
2:15 pm 14:15 Sunny 36 2 12 -11 38 38 WSW 9 15 30.33 1027 10 16.09344 0 0
2:35 pm 14:35 Sunny 36 2 12 -11 38 38 WSW 9 15 30.33 1027 10 16.09344 0 0
2:55 pm 14:55 Sunny 36 2 12 -11 38 38 WSW 12 19 30.3 1026 10 16.09344 0 0
3:15 pm 15:15 Sunny 34 1 12 -11 41 41 WSW 10 17 30.33 1027 10 16.09344 0 0
3:35 pm 15:35 Sunny 34 1 16 -9 48 48 WSW 12 19 30.33 1027 10 16.09344 0 0
3:55 pm 15:55 Sunny 34 1 16 -9 48 48 WSW 10 17 30.33 1027 10 16.09344 0 0
4:15 pm 16:15 Sunny 32 0 16 -9 51 51 WSW 12 19 30.33 1027 10 16.09344 0 0
4:35 pm 16:35 Sunny 32 0 16 -9 51 51 SW 13 20 30.3 1026 10 16.09344 0 0
4:55 pm 16:55 Sunny 32 0 16 -9 51 51 SW 10 17 30.3 1026 10 16.09344 0 0
5:15 pm 17:15 Sunny 30 -1 16 -9 55 55 SW 8 13 30.3 1026 10 16.09344 0 0
5:35 pm 17:35 Clear 30 -1 18 -8 59 59 SW 7 11 30.3 1026 10 16.09344 0 0
5:55 pm 17:55 Clear 28 -2 18 -8 64 64 SW 5 7 30.27 1025 10 16.09344 0 0
6:15 pm 18:15 Clear 28 -2 18 -8 64 64 SSW 7 11 30.27 1025 10 16.09344 0 0
6:35 pm 18:35 Clear 28 -2 18 -8 64 64 SSW 7 11 30.24 1024 10 16.09344 0 0
6:55 pm 18:55 Clear 28 -2 18 -8 64 64 SW 6 9 30.24 1024 10 16.09344 0 0
7:15 pm 19:15 Clear 28 -2 18 -8 64 64 SW 6 9 30.24 1024 10 16.09344 0 0
7:35 pm 19:35 Clear 27 -3 18 -8 69 69 SW 6 9 30.27 1025 10 16.09344 0 0
7:55 pm 19:55 Clear 27 -3 18 -8 69 69 SW 5 7 30.27 1025 10 16.09344 0 0
8:15 pm 20:15 Clear 27 -3 18 -8 69 69 SSW 6 9 30.27 1025 10 16.09344 0 0
8:35 pm 20:35 Clear 27 -3 18 -8 69 69 SSW 5 7 30.27 1025 10 16.09344 0 0
8:55 pm 20:55 Clear 27 -3 19 -7 74 74 SW 5 7 30.27 1025 10 16.09344 0 0
9:15 pm 21:15 Clear 28 -2 19 -7 69 69 SSW 3 6 30.24 1024 10 16.09344 0 0
9:35 pm 21:35 Clear 28 -2 19 -7 69 69 SSW 3 6 30.24 1024 10 16.09344 0 0
9:55 pm 21:55 Clear 28 -2 19 -7 69 69 SW 3 6 30.24 1024 10 16.09344 0 0
10:15 pm 22:15 Clear 28 -2 19 -7 69 69 SW 6 9 30.24 1024 10 16.09344 0 0
10:35 pm 22:35 Clear 28 -2 21 -6 74 74 SW 3 6 30.24 1024 10 16.09344 0 0
10:55 pm 22:55 Clear 28 -2 21 -6 74 74 SW 5 7 30.24 1024 10 16.09344 0 0
11:15 pm 23:15 Clear 30 -1 21 -6 69 69 WSW 6 9 30.21 1023 10 16.09344 0 0
11:35 pm 23:35 Clear 30 -1 23 -5 75 75 WSW 8 13 30.21 1023 10 16.09344 0 0
11:55 pm 23:55 Clear 28 -2 23 -5 80 80 W 8 13 30.21 1023 10 16.09344 0 0

Powered by AerisWeather